Location: Aalen
(48.8330°N, 10.1000°E)
Time: 23:15:53
(UTC+02:00)

Transit 4A - Pass Details

Date: 09 August 2021
Orbit: 870 x 974 km, 66.8° (Epoch: 26 September)

Event Time Altitude Azimuth Distance (km) Brightness Sun altitude
Rises 05:23:55 0° 321° (NW) 3,469 10.8 -6.6°
Reaches altitude 10° 05:27:12 10° 340° (NNW) 2,534 10.4 -6.1°
Maximum altitude 05:31:14 19° 24° (NNE) 1,992 10.5 -5.6°
Drops below altitude 10° 05:35:18 10° 68° (ENE) 2,557 12.0 -5.0°
Sets 05:38:38 0° 86° (E) 3,512 12.2 -4.5°
